Location: Cassano d�Adda
(45.5333°N, 9.5167°E)
Time: 04:38:52
(UTC+00:00)

CZ-4 R/B - Pass Details

Date: 08 December 2019
Orbit: 533 x 598 km, 97.7° (Epoch: 21 January)

Event Time Altitude Azimuth Distance (km) Brightness Sun altitude
Rises 17:04:21 0° 147° (SSE) 2,719 4.7 -14.4°
Reaches altitude 10° 17:06:35 10° 139° (SE) 1,819 3.7 -14.8°
Maximum altitude 17:10:14 38° 71° (ENE) 841 1.7 -15.4°
Drops below altitude 10° 17:13:51 10° 2° (N) 1,807 3.8 -16.0°
Sets 17:16:03 0° 355° (N) 2,698 4.7 -16.4°
